Regional Weather Roundup
Issued by NWS

Home | Current Version | Previous Version | Graphics & Text | Print | Product List | Glossary On
Versions: 1 2 3 4 5 6 7 8 9 10 11 12 13 14 15 16 17 18 19 20 21 22 23 24 25 26 27 28 29 30 31 32 33 34 35 36 37 38 39 40 41 42 43 44 45 46 47 48 49 50
000
ASUS44 KMEG 281810
RWRTN
TENNESSEE HOURLY STATE WEATHER ROUNDUP
NATIONAL WEATHER SERVICE MEMPHIS TN
100 PM CDT TUE MAR 28 2017

TNZ002-004-019-021-049-052-054-088>092-281900-
WEST TENNESSEE

CITY           SKY/WX    TMP DP  RH WIND       PRES   REMARKS
MEMPHIS INTL   MOSUNNY   74  57  55 NE6       30.01F
NWS MEMPHIS      N/A     73 N/A N/A MISG        N/A
JACKSON        MOSUNNY   69  57  65 NE5       30.03F
DYERSBURG      PTSUNNY   67  56  67 NE9       30.05F
SOMERVILLE     SUNNY     70  57  64 VRB8      30.01F
PARIS          CLOUDY    61  52  72 VRB3      30.05S
$$

TNZ008-025-027-028-033-062-065-066-281900-
NORTH MIDDLE TENNESSEE

CITY           SKY/WX    TMP DP  RH WIND       PRES   REMARKS
NASHVILLE      PTSUNNY   69  51  52 CALM      30.03S
CLARKSVILLE    CLOUDY    62  54  74 N8        30.04S
SMYRNA         CLOUDY    67  54  63 N5        30.03F
CROSSVILLE     CLOUDY    62  51  67 W12G18    30.03S
$$

TNZ061-075-076-078-094-096-097-281900-
SOUTH MIDDLE TENNESSEE

CITY           SKY/WX    TMP DP  RH WIND       PRES   REMARKS
FAYETTEVILLE   PTSUNNY   66  59  77 NW6       30.03S
MCMINNVILLE    CLOUDY    63  55  77 W5        30.04
COLUMBIA       PTSUNNY   68  63  83 VRB6      30.01F
$$

TNZ017-018-042-046-047-281900-
NORTHEAST TENNESSEE

CITY           SKY/WX    TMP DP  RH WIND       PRES   REMARKS
TRI CITIES     PTSUNNY   67  53  61 W9        29.98F
ELIZABETHTON   PTSUNNY   63  55  77 W7        29.98S
$$

TNZ012-013-036-069-073-074-281900-
CENTRAL EAST TENNESSEE

CITY           SKY/WX    TMP DP  RH WIND       PRES   REMARKS
KNOXVILLE      PTSUNNY   67  57  70 S7        29.99S
OAK RIDGE      MOSUNNY   72  49  44 VRB7      29.99F
$$

TNZ083-085-099-281900-
SOUTHEAST TENNESSEE

CITY           SKY/WX    TMP DP  RH WIND       PRES   REMARKS
CHATTANOOGA    MOSUNNY   71  58  63 W7        30.00F
$$

SKY/WX REPORTED AS FAIR MEANS FEW OR NO CLOUDS BELOW
12 THOUSAND FEET.




USA.gov is the U.S. government's official web portal to all federal, state and local government web resources and services.